Time[GMT],salinity[psu](50m),sigma_t[kg/m^3](50m),conductivity[msiemens/cm](50m),temperature[C](50m),pressure[decibars](50m)
2020-09-16 02:00,32.733,25.025,36.713,10.92,50.21
2020-09-16 03:00,32.726,25.011,36.750,10.97,50.18
2020-09-16 04:00,32.751,25.019,36.833,11.04,50.13
2020-09-16 05:00,32.722,24.906,37.254,11.54,50.33
2020-09-16 06:00,32.670,24.815,37.454,11.82,50.12
2020-09-16 07:00,32.694,24.838,37.458,11.79,50.52
2020-09-16 08:00,32.701,24.858,37.392,11.71,49.44
2020-09-16 09:00,32.723,24.896,37.309,11.60,49.83
2020-09-16 10:00,32.676,24.883,37.145,11.47,49.28
2020-09-16 11:00,32.667,24.955,36.737,11.02,50.01
2020-09-16 12:00,32.779,24.966,37.237,11.45,49.63
2020-09-16 13:00,32.761,24.952,37.221,11.45,49.61
2020-09-16 14:00,32.764,25.010,36.944,11.15,49.39
2020-09-16 15:00,32.766,25.092,36.535,10.69,49.06
2020-09-16 16:00,32.762,25.008,36.944,11.15,48.58
2020-09-16 17:00,32.749,24.948,37.177,11.42,48.25
2020-09-16 18:00,32.722,25.008,36.740,10.97,48.62
2020-09-16 19:00,32.695,25.098,36.140,10.33,48.74
2020-09-16 20:00,32.704,24.955,36.922,11.19,48.46
2020-09-16 21:00,32.721,24.988,36.837,11.08,48.79
2020-09-16 22:00,32.710,24.967,36.891,11.15,49.17
2020-09-16 23:00,32.714,24.982,36.834,11.08,48.84
2020-09-17 00:00,32.705,24.962,36.895,11.16,48.66
2020-09-17 01:00,32.742,24.983,36.966,11.19,49.45
2020-09-17 02:00,32.683,24.988,36.650,10.91,49.78
2020-09-17 03:00,32.723,25.036,36.604,10.81,48.78
2020-09-17 04:00,32.624,24.893,36.841,11.19,49.85
2020-09-17 05:00,32.635,25.113,35.752,9.96,49.22
2020-09-17 06:00,32.696,25.143,35.906,10.06,49.03
2020-09-17 07:00,32.714,25.051,36.484,10.69,48.42
2020-09-17 08:00,32.719,25.051,36.506,10.71,49.31
2020-09-17 09:00,32.701,25.061,36.365,10.57,48.37
2020-09-17 10:00,32.688,25.010,36.563,10.81,48.41
2020-09-17 11:00,32.644,25.100,35.867,10.08,49.67
2020-09-17 12:00,32.752,25.225,35.753,9.83,50.01
2020-09-17 13:00,32.739,25.132,36.184,10.33,49.55
2020-09-17 14:00,32.697,25.076,36.265,10.46,49.94
2020-09-17 15:00,32.698,25.091,36.189,10.38,49.71
2020-09-17 16:00,32.695,25.046,36.412,10.63,49.89
2020-09-17 17:00,32.692,25.034,36.457,10.68,50.02
2020-09-17 18:00,32.779,25.006,37.033,11.23,50.17
2020-09-17 19:00,32.780,24.985,37.146,11.35,50.35
2020-09-17 20:00,32.774,24.967,37.206,11.42,49.68
2020-09-17 21:00,32.769,24.971,37.162,11.38,49.82
2020-09-17 22:00,32.766,25.043,36.783,10.96,49.89
2020-09-17 23:00,32.754,25.026,36.810,11.01,49.87
2020-09-18 00:00,32.552,24.983,36.014,10.34,50.04
2020-09-18 01:00,32.649,25.066,36.075,10.31,50.05
2020-09-18 02:00,32.723,25.081,36.375,10.56,50.06
2020-09-18 03:00,32.666,25.168,35.616,9.77,49.92
2020-09-18 04:00,32.642,25.108,35.815,10.02,50.09
2020-09-18 05:00,32.685,25.167,35.720,9.87,49.92
2020-09-18 06:00,32.689,25.193,35.602,9.73,49.09
2020-09-18 07:00,32.642,25.029,36.233,10.49,48.42
2020-09-18 08:00,32.665,25.041,36.283,10.52,48.31
2020-09-18 09:00,32.671,25.056,36.234,10.46,48.68
2020-09-18 10:00,32.604,25.047,35.944,10.21,49.16
2020-09-18 11:00,32.649,25.096,35.919,10.13,48.87
2020-09-18 12:00,32.661,25.104,35.934,10.13,48.98
2020-09-18 13:00,32.681,25.061,36.261,10.48,49.84
2020-09-18 14:00,32.631,25.001,36.323,10.60,49.24
2020-09-18 15:00,32.734,24.983,36.931,11.16,49.70
2020-09-18 16:00,32.683,24.954,36.821,11.10,50.15
2020-09-18 17:00,32.675,25.020,36.444,10.69,49.60
2020-09-18 18:00,32.781,25.008,37.035,11.23,50.29
2020-09-18 19:00,32.674,24.867,37.216,11.55,49.99
2020-09-18 20:00,32.549,25.056,35.616,9.90,50.07
2020-09-18 21:00,32.709,24.969,36.873,11.13,49.99
2020-09-18 22:00,32.698,25.135,35.962,10.12,49.97
2020-09-18 23:00,32.802,25.089,36.731,10.87,49.97
2020-09-19 00:00,32.778,25.003,37.046,11.24,49.78
2020-09-19 01:00,32.664,25.085,36.051,10.26,49.97
2020-09-19 02:00,32.665,25.068,36.149,10.37,49.71
2020-09-19 03:00,32.613,25.084,35.792,10.03,49.80
2020-09-19 04:00,32.580,25.099,35.541,9.78,49.56
2020-09-19 05:00,32.572,25.055,35.741,10.02,48.88
2020-09-19 06:00,32.522,24.910,36.247,10.64,48.69
2020-09-19 07:00,32.561,24.873,36.629,11.02,49.31
2020-09-19 08:00,32.724,24.985,36.870,11.11,48.81
2020-09-19 09:00,32.631,25.008,36.287,10.56,49.48
2020-09-19 10:00,32.650,24.871,37.080,11.42,49.95
2020-09-19 11:00,32.681,24.977,36.695,10.96,49.12
2020-09-19 12:00,32.619,25.004,36.247,10.53,49.82
2020-09-19 13:00,32.634,24.952,36.590,10.90,49.93
2020-09-19 14:00,32.642,25.005,36.356,10.63,49.98
2020-09-19 15:00,32.626,25.105,35.748,9.96,49.76
2020-09-19 16:00,32.602,25.028,36.035,10.31,49.91
2020-09-19 17:00,32.611,25.017,36.137,10.42,49.72
2020-09-19 18:00,32.615,25.047,35.996,10.26,49.85
2020-09-19 19:00,32.628,25.050,36.048,10.30,49.78
2020-09-19 20:00,32.529,24.781,36.935,11.40,49.87
2020-09-19 21:00,32.577,24.977,36.178,10.50,50.38
2020-09-19 22:00,32.580,24.980,36.174,10.49,50.47
2020-09-19 23:00,32.622,25.028,36.139,10.41,50.17
2020-09-20 00:00,32.629,25.067,35.967,10.21,50.01
2020-09-20 01:00,32.596,24.991,36.195,10.50,50.13
2020-09-20 02:00,32.625,25.052,36.025,10.28,49.75
2020-09-20 03:00,32.685,25.110,36.026,10.21,49.55
2020-09-20 04:00,32.621,25.053,35.998,10.25,48.97
2020-09-20 05:00,32.602,25.015,36.104,10.39,49.16
2020-09-20 06:00,32.650,25.040,36.214,10.46,49.11
2020-09-20 07:00,32.696,25.045,36.423,10.64,48.97
2020-09-20 08:00,32.702,25.021,36.575,10.80,48.77
2020-09-20 09:00,32.679,25.016,36.490,10.73,49.14
2020-09-20 10:00,32.638,25.049,36.109,10.35,49.80
2020-09-20 11:00,32.615,24.953,36.492,10.81,49.65
2020-09-20 12:00,32.611,24.946,36.506,10.83,50.06
2020-09-20 13:00,32.600,25.021,36.062,10.35,49.74
2020-09-20 14:00,32.658,25.003,36.447,10.71,49.90
2020-09-20 15:00,32.753,25.066,36.600,10.78,50.29
2020-09-20 16:00,32.749,25.090,36.453,10.62,50.19
2020-09-20 17:00,32.753,24.991,36.982,11.20,50.44
2020-09-20 18:00,32.660,24.904,36.965,11.29,50.60
2020-09-20 19:00,32.687,25.038,36.414,10.64,50.20
2020-09-20 20:00,32.633,24.943,36.632,10.95,50.25
2020-09-20 21:00,32.695,25.150,35.865,10.02,50.00
2020-09-20 22:00,32.589,24.918,36.536,10.89,50.19
2020-09-20 23:00,32.649,24.952,36.662,10.96,49.66
2020-09-21 00:00,32.700,25.141,35.940,10.10,49.80
2020-09-21 01:00,32.635,25.070,35.981,10.22,49.64
2020-09-21 02:00,32.670,25.148,35.745,9.91,50.26
2020-09-21 03:00,32.614,25.048,35.988,10.25,50.28
2020-09-21 04:00,32.600,25.007,36.134,10.43,50.03
2020-09-21 05:00,32.606,25.001,36.196,10.49,50.26
2020-09-21 06:00,32.663,25.093,36.004,10.21,50.11
2020-09-21 07:00,32.635,25.076,35.947,10.18,50.24
2020-09-21 08:00,32.656,25.071,36.082,10.31,50.37
2020-09-21 09:00,32.640,24.962,36.568,10.87,49.65
2020-09-21 10:00,32.591,24.861,36.840,11.22,50.15
2020-09-21 11:00,32.648,24.961,36.616,10.91,50.12
2020-09-21 12:00,32.633,25.020,36.238,10.50,50.01
2020-09-21 13:00,32.649,25.032,36.250,10.50,50.31
2020-09-21 14:00,32.623,25.035,36.101,10.36,50.20
2020-09-21 15:00,32.658,24.988,36.523,10.80,50.16
2020-09-21 16:00,32.683,25.039,36.389,10.62,49.53
2020-09-21 17:00,32.658,24.936,36.792,11.09,49.87
2020-09-21 18:00,32.594,24.856,36.880,11.27,50.22
2020-09-21 19:00,32.693,24.979,36.750,11.01,50.21
2020-09-21 20:00,32.702,25.070,36.321,10.52,50.57
2020-09-21 21:00,32.619,25.012,36.208,10.49,50.05
2020-09-21 22:00,32.570,24.934,36.365,10.72,50.31
2020-09-21 23:00,32.548,24.845,36.704,11.12,50.31
2020-09-22 00:00,32.566,24.860,36.720,11.12,50.37
2020-09-22 01:00,32.562,24.849,36.759,11.17,49.69
2020-09-22 02:00,32.553,24.848,36.716,11.13,50.41
2020-09-22 03:00,32.624,24.979,36.403,10.70,49.97
2020-09-22 04:00,32.601,24.928,36.548,10.89,50.43
2020-09-22 05:00,32.565,24.882,36.600,10.99,50.06
2020-09-22 06:00,32.575,24.870,36.718,11.11,49.81
2020-09-22 07:00,32.583,24.909,36.560,10.92,50.05
2020-09-22 08:00,32.577,24.916,36.491,10.85,49.62
2020-09-22 09:00,32.585,24.993,36.130,10.44,48.77
2020-09-22 10:00,32.605,24.962,36.395,10.71,48.46
2020-09-22 11:00,32.564,24.886,36.576,10.96,48.77
2020-09-22 12:00,32.599,24.872,36.827,11.20,48.53
2020-09-22 13:00,32.626,24.860,37.014,11.38,48.99
2020-09-22 14:00,32.610,25.004,36.203,10.49,49.76
2020-09-22 15:00,32.590,24.866,36.808,11.19,49.40
2020-09-22 16:00,32.608,25.020,36.112,10.39,49.21
2020-09-22 17:00,32.649,25.069,36.059,10.29,49.65
2020-09-22 18:00,32.567,24.914,36.453,10.82,49.52
2020-09-22 19:00,32.584,24.909,36.562,10.92,50.16
2020-09-22 20:00,32.615,24.991,36.291,10.59,49.39
2020-09-22 21:00,32.627,25.024,36.186,10.45,49.55
2020-09-22 22:00,32.581,24.913,36.523,10.88,49.15
2020-09-22 23:00,32.582,24.962,36.278,10.61,48.65
2020-09-23 00:00,32.594,24.953,36.386,10.71,50.21
2020-09-23 01:00,32.589,24.942,36.419,10.76,49.81
2020-09-23 02:00,32.602,24.920,36.594,10.94,50.11
2020-09-23 03:00,32.558,24.834,36.815,11.23,49.46
2020-09-23 04:00,32.591,24.861,36.840,11.22,50.49
2020-09-23 05:00,32.578,24.887,36.641,11.02,48.42
2020-09-23 06:00,32.614,24.949,36.505,10.83,49.35
2020-09-23 07:00,32.575,24.863,36.747,11.14,48.32
2020-09-23 08:00,32.635,24.814,37.286,11.67,49.80
2020-09-23 09:00,32.616,24.961,36.451,10.76,48.60
2020-09-23 10:00,32.631,25.005,36.300,10.58,49.02
2020-09-23 11:00,32.673,24.966,36.712,10.99,49.72
2020-09-23 12:00,32.595,24.839,36.968,11.36,49.85
2020-09-23 13:00,32.578,24.886,36.649,11.03,49.70
2020-09-23 14:00,32.579,24.871,36.730,11.12,50.13
2020-09-23 15:00,32.558,24.811,36.924,11.36,49.82
2020-09-23 16:00,32.552,24.845,36.722,11.14,49.83
2020-09-23 17:00,32.590,24.905,36.610,10.97,49.74
2020-09-23 18:00,32.588,24.915,36.553,10.91,49.75
2020-09-23 19:00,32.586,24.926,36.482,10.83,49.85
2020-09-23 20:00,32.572,24.901,36.544,10.92,49.89
2020-09-23 21:00,32.587,24.941,36.411,10.75,49.44
2020-09-23 22:00,32.599,24.960,36.373,10.69,49.73
2020-09-23 23:00,32.573,24.856,36.775,11.17,49.40
2020-09-24 00:00,32.537,24.747,37.142,11.62,49.92
2020-09-24 01:00,32.595,24.917,36.572,10.92,49.81
2020-09-24 02:00,32.593,24.892,36.693,11.06,49.91
2020-09-24 03:00,32.600,24.925,36.562,10.90,50.11
2020-09-24 04:00,32.597,24.917,36.586,10.93,49.88
2020-09-24 05:00,32.584,24.879,36.716,11.09,50.03
2020-09-24 06:00,32.620,24.978,36.385,10.69,49.96
2020-09-24 07:00,32.622,24.986,36.357,10.65,50.05
2020-09-24 08:00,32.642,25.082,35.951,10.17,49.99
2020-09-24 09:00,32.622,24.993,36.322,10.61,49.95
2020-09-24 10:00,32.584,24.907,36.568,10.93,49.86
2020-09-24 11:00,32.585,24.927,36.477,10.83,49.72
2020-09-24 12:00,32.587,24.805,37.100,11.52,50.14
2020-09-24 13:00,32.621,24.908,36.751,11.09,49.99
2020-09-24 14:00,32.669,24.845,37.303,11.65,49.84
2020-09-24 15:00,32.660,24.838,37.291,11.65,50.05
2020-09-24 16:00,32.608,24.953,36.457,10.78,50.05
2020-09-24 17:00,32.687,24.768,37.763,12.14,50.02
2020-09-24 18:00,32.581,24.951,36.330,10.67,50.12
2020-09-24 19:00,32.832,25.103,36.808,10.92,49.87
2020-09-24 20:00,32.781,24.946,37.346,11.57,50.06
2020-09-24 21:00,32.787,24.898,37.612,11.86,49.66
2020-09-24 22:00,32.762,24.830,37.826,12.12,50.00
2020-09-24 23:00,32.792,24.912,37.564,11.80,50.07
2020-09-25 00:00,32.771,24.818,37.921,12.22,49.85
2020-09-25 01:00,32.794,24.769,38.265,12.57,50.29
2020-09-25 02:00,32.772,24.778,38.121,12.43,50.07
2020-09-25 03:00,32.730,24.716,38.217,12.59,50.18
2020-09-25 04:00,32.785,24.823,37.963,12.25,50.11
2020-09-25 05:00,32.768,24.743,38.264,12.60,50.32
2020-09-25 06:00,32.772,24.759,38.213,12.53,50.10
2020-09-25 07:00,32.765,24.837,37.803,12.09,50.11
2020-09-25 08:00,32.767,24.848,37.763,12.05,49.62
2020-09-25 09:00,32.778,24.867,37.718,11.98,50.15
2020-09-25 10:00,32.771,24.770,38.151,12.47,49.98
2020-09-25 11:00,32.774,24.784,38.103,12.41,50.07
2020-09-25 12:00,32.793,24.742,38.392,12.71,49.75
2020-09-25 13:00,32.812,24.783,38.286,12.57,50.00
2020-09-25 14:00,32.783,24.780,38.164,12.47,49.66
2020-09-25 15:00,32.764,24.719,38.358,12.70,49.85
2020-09-25 16:00,32.751,24.740,38.201,12.55,50.23
2020-09-25 17:00,32.762,24.753,38.193,12.52,49.87
2020-09-25 18:00,32.770,24.744,38.271,12.60,50.10
2020-09-25 19:00,32.755,24.762,38.114,12.45,49.93
2020-09-25 20:00,32.767,24.770,38.134,12.45,50.07
2020-09-25 21:00,32.741,24.728,38.211,12.57,50.09
2020-09-25 22:00,32.744,24.807,37.846,12.16,49.96
2020-09-25 23:00,32.723,24.831,37.630,11.95,50.02
2020-09-26 00:00,32.733,24.742,38.109,12.47,50.09
2020-09-26 01:00,32.744,24.753,38.107,12.45,49.84
2020-09-26 02:00,32.733,24.732,38.154,12.52,50.06
2020-09-26 03:00,32.727,24.719,38.188,12.56,50.16
2020-09-26 04:00,32.733,24.728,38.169,12.53,50.17
2020-09-26 05:00,32.729,24.728,38.155,12.52,50.02
2020-09-26 06:00,32.749,24.750,38.143,12.49,50.47
2020-09-26 07:00,32.731,24.730,38.155,12.52,50.03
2020-09-26 08:00,32.774,24.832,37.871,12.16,50.10
2020-09-26 09:00,32.730,24.757,38.019,12.37,50.10
2020-09-26 10:00,32.685,24.983,36.686,10.95,50.04
2020-09-26 11:00,32.623,24.829,37.156,11.54,50.06
2020-09-26 12:00,32.707,24.732,38.031,12.41,49.97
2020-09-26 13:00,32.713,24.742,38.014,12.38,50.08
2020-09-26 14:00,32.685,24.744,37.867,12.25,50.16
2020-09-26 15:00,32.689,24.726,37.975,12.37,50.11
2020-09-26 16:00,32.674,24.706,38.000,12.41,50.02
2020-09-26 17:00,32.678,24.714,37.981,12.39,49.81
2020-09-26 18:00,32.705,24.744,37.966,12.34,49.86
2020-09-26 19:00,32.711,24.722,38.097,12.48,49.96
2020-09-26 20:00,32.724,24.754,38.006,12.36,49.75
2020-09-26 21:00,32.732,24.818,37.736,12.06,49.87
2020-09-26 22:00,32.689,24.946,36.894,11.17,50.20
2020-09-26 23:00,32.699,24.894,37.204,11.51,49.80
2020-09-27 00:00,32.701,24.865,37.358,11.67,49.59
2020-09-27 01:00,32.696,24.787,37.714,12.07,49.67
2020-09-27 02:00,32.644,24.682,37.972,12.42,49.92
2020-09-27 03:00,32.706,24.738,37.994,12.37,49.62
2020-09-27 04:00,32.744,24.743,38.155,12.50,49.64
2020-09-27 05:00,32.715,24.686,38.287,12.68,49.50
2020-09-27 06:00,32.722,24.681,38.341,12.73,50.01
2020-09-27 07:00,32.725,24.688,38.324,12.71,49.99
2020-09-27 08:00,32.723,24.772,37.914,12.26,49.93
2020-09-27 09:00,32.684,24.835,37.422,11.76,49.94
2020-09-27 10:00,32.688,24.942,36.909,11.19,50.13
2020-09-27 11:00,32.675,24.957,36.768,11.05,50.26
2020-09-27 12:00,32.710,25.020,36.622,10.85,50.08
2020-09-27 13:00,32.703,24.996,36.710,10.95,50.24
2020-09-27 14:00,32.701,25.022,36.568,10.80,50.00
2020-09-27 15:00,32.661,24.912,36.928,11.24,50.05
2020-09-27 16:00,32.628,24.762,37.510,11.93,49.95
2020-09-27 17:00,32.656,24.808,37.420,11.79,50.04
2020-09-27 18:00,32.621,24.752,37.523,11.95,50.24
2020-09-27 19:00,32.630,24.762,37.517,11.93,50.02
2020-09-27 20:00,32.650,24.775,37.550,11.94,49.89
2020-09-27 21:00,32.697,24.824,37.536,11.88,49.80
2020-09-27 22:00,32.632,24.790,37.391,11.79,49.87
2020-09-27 23:00,32.681,24.936,36.903,11.19,50.06
2020-09-28 00:00,32.698,25.022,36.552,10.78,49.86
2020-09-28 01:00,32.679,24.921,36.966,11.27,49.72
2020-09-28 02:00,32.675,24.918,36.967,11.27,49.85
2020-09-28 03:00,32.695,25.002,36.639,10.88,49.87
2020-09-28 04:00,32.695,25.006,36.620,10.86,49.98
2020-09-28 05:00,32.635,24.822,37.246,11.63,50.00
2020-09-28 06:00,32.704,24.820,37.596,11.93,49.99
2020-09-28 07:00,32.704,24.856,37.414,11.73,49.96
2020-09-28 08:00,32.715,24.859,37.457,11.77,50.23
2020-09-28 09:00,32.668,24.905,36.995,11.31,49.82
2020-09-28 10:00,32.643,24.856,37.119,11.48,49.83
2020-09-28 11:00,32.707,24.972,36.851,11.11,50.03
2020-09-28 12:00,32.683,24.937,36.909,11.20,50.18
2020-09-28 13:00,32.737,24.990,36.908,11.14,49.78
2020-09-28 14:00,32.682,24.960,36.790,11.07,50.21
2020-09-28 15:00,32.675,24.943,36.842,11.13,50.19
2020-09-28 16:00,32.677,24.944,36.845,11.13,50.10
2020-09-28 17:00,32.664,24.841,37.297,11.65,49.49
2020-09-28 18:00,32.631,24.749,37.583,12.00,49.80
2020-09-28 19:00,32.713,24.828,37.597,11.92,49.42
2020-09-28 20:00,32.717,24.861,37.453,11.76,50.01
2020-09-28 21:00,32.660,24.895,37.010,11.33,49.62
2020-09-28 22:00,32.711,25.016,36.649,10.88,49.93
2020-09-28 23:00,32.726,25.048,36.555,10.76,50.16
2020-09-29 00:00,32.756,25.046,36.718,10.90,49.97
2020-09-29 01:00,32.813,25.061,36.924,11.07,50.07
2020-09-29 02:00,32.852,25.103,36.908,11.01,49.80
2020-09-29 03:00,32.808,24.973,37.343,11.54,49.88
2020-09-29 04:00,32.846,25.049,37.147,11.28,49.53
2020-09-29 05:00,32.790,25.033,36.952,11.12,50.11
2020-09-29 06:00,32.678,24.933,36.904,11.20,50.01
2020-09-29 07:00,32.669,24.918,36.937,11.24,50.04
2020-09-29 08:00,32.748,24.895,37.433,11.70,50.51
2020-09-29 09:00,32.689,24.952,36.866,11.14,49.79
2020-09-29 10:00,32.732,25.013,36.770,10.99,50.42
2020-09-29 11:00,32.839,25.143,36.637,10.72,50.73
2020-09-29 12:00,32.881,25.148,36.816,10.87,49.88
2020-09-29 13:00,32.842,25.063,37.055,11.18,49.62
2020-09-29 14:00,32.874,25.067,37.201,11.31,49.66
2020-09-29 15:00,32.976,25.085,37.605,11.64,49.97
2020-09-29 16:00,32.829,24.912,37.743,11.95,49.84
2020-09-29 17:00,32.883,24.975,37.698,11.84,49.77
2020-09-29 18:00,32.797,24.886,37.722,11.97,50.25
2020-09-29 19:00,32.793,24.886,37.702,11.95,49.62
2020-09-29 20:00,32.795,24.885,37.712,11.96,49.48
2020-09-29 21:00,32.800,24.895,37.685,11.92,50.12
2020-09-29 22:00,32.938,25.057,37.563,11.63,49.92
2020-09-29 23:00,32.954,25.093,37.463,11.50,50.25
2020-09-30 00:00,32.926,25.059,37.489,11.57,49.69
2020-09-30 01:00,32.923,25.065,37.448,11.52,49.88
2020-09-30 02:00,32.929,25.085,37.375,11.44,49.95
2020-09-30 03:00,32.878,24.985,37.627,11.77,50.09
2020-09-30 04:00,32.882,25.013,37.504,11.63,49.66
2020-09-30 05:00,32.889,25.009,37.559,11.68,49.68
2020-09-30 06:00,32.845,24.943,37.671,11.86,49.85
2020-09-30 07:00,32.839,24.921,37.750,11.95,49.70
2020-09-30 08:00,32.843,24.926,37.744,11.94,50.02
2020-09-30 09:00,32.852,24.945,37.697,11.88,48.73
2020-09-30 10:00,32.847,24.931,37.738,11.93,48.34
2020-09-30 11:00,32.843,24.929,37.732,11.93,47.04
2020-09-30 12:00,32.873,24.982,37.613,11.76,47.53
2020-09-30 13:00,32.885,25.018,37.497,11.62,47.02
2020-09-30 14:00,32.863,24.978,37.588,11.74,47.34
2020-09-30 15:00,32.873,24.975,37.651,11.80,46.04
2020-09-30 16:00,32.889,25.022,37.498,11.62,46.39
2020-09-30 17:00,32.832,24.918,37.734,11.94,47.64
2020-09-30 18:00,32.849,24.935,37.732,11.92,49.95
2020-09-30 19:00,32.813,24.898,37.735,11.96,48.63
2020-09-30 20:00,32.832,24.941,37.614,11.81,48.34
2020-09-30 21:00,32.876,25.022,37.431,11.56,49.49
2020-09-30 22:00,32.893,25.086,37.191,11.27,49.62
2020-09-30 23:00,32.938,25.132,37.183,11.21,49.60
2020-10-01 00:00,32.954,25.150,37.174,11.19,49.94
2020-10-01 01:00,32.981,25.206,37.023,10.99,50.17
2020-10-01 02:00,32.987,25.214,37.011,10.97,49.71
2020-10-01 03:00,32.970,25.188,37.061,11.04,49.61
2020-10-01 04:00,32.962,25.185,37.034,11.02,50.14
2020-10-01 05:00,32.938,25.142,37.132,11.16,49.76
2020-10-01 06:00,32.821,24.984,37.348,11.53,50.00
2020-10-01 07:00,32.833,24.972,37.470,11.65,49.76
2020-10-01 08:00,32.780,24.910,37.522,11.77,49.11
2020-10-01 09:00,32.756,24.904,37.432,11.69,48.73
2020-10-01 10:00,32.763,24.958,37.199,11.43,49.13
2020-10-01 11:00,32.770,25.003,37.007,11.21,48.79
2020-10-01 12:00,32.828,25.086,36.872,10.99,49.90
2020-10-01 13:00,32.818,25.072,36.896,11.03,50.29
2020-10-01 14:00,32.896,25.122,37.027,11.09,50.15
2020-10-01 15:00,32.908,25.190,36.739,10.76,50.05
2020-10-01 16:00,32.889,25.156,36.822,10.87,50.00
2020-10-01 17:00,32.907,25.195,36.705,10.72,50.35
2020-10-01 18:00,32.893,25.198,36.619,10.64,50.38
2020-10-01 19:00,32.901,25.211,36.596,10.61,50.14
2020-10-01 20:00,32.855,25.131,36.778,10.86,49.87
2020-10-01 21:00,32.855,25.080,37.042,11.15,49.64
2020-10-01 22:00,32.876,25.082,37.132,11.23,49.35
2020-10-01 23:00,32.847,25.007,37.364,11.52,50.00
2020-10-02 00:00,32.833,24.992,37.368,11.54,48.72
2020-10-02 01:00,32.813,25.061,36.925,11.07,50.05
2020-10-02 02:00,32.804,25.094,36.712,10.84,49.73
2020-10-02 03:00,32.855,25.131,36.776,10.86,49.54
2020-10-02 04:00,32.780,25.036,36.890,11.07,49.35
2020-10-02 05:00,32.765,25.038,36.801,10.99,50.10
2020-10-02 06:00,32.747,25.037,36.719,10.91,50.56
2020-10-02 07:00,32.834,25.155,36.547,10.63,50.56
2020-10-02 08:00,32.795,25.098,36.643,10.78,50.16
2020-10-02 09:00,32.772,25.086,36.589,10.74,49.86
2020-10-02 10:00,32.776,25.092,36.578,10.73,50.25
2020-10-02 11:00,32.796,25.118,36.547,10.67,50.05
2020-10-02 12:00,32.757,25.049,36.708,10.89,50.16
2020-10-02 13:00,32.840,24.979,37.467,11.64,49.70
2020-10-02 14:00,32.901,25.046,37.434,11.53,48.89
2020-10-02 15:00,32.941,25.093,37.398,11.45,49.03
2020-10-02 16:00,32.932,25.064,37.493,11.56,48.89
2020-10-02 17:00,32.909,25.036,37.521,11.62,49.89
2020-10-02 18:00,32.972,25.138,37.319,11.33,50.19
2020-10-02 19:00,32.915,25.047,37.495,11.58,50.08
2020-10-02 20:00,32.827,24.974,37.433,11.61,50.17
2020-10-02 21:00,32.822,25.009,37.232,11.40,49.05
2020-10-02 22:00,32.777,25.040,36.853,11.03,49.13
2020-10-02 23:00,32.801,25.009,37.132,11.31,49.56
2020-10-03 00:00,32.822,25.060,36.974,11.11,49.99
2020-10-03 01:00,32.865,25.086,37.053,11.15,49.88
2020-10-03 02:00,32.849,25.069,37.065,11.18,49.80
2020-10-03 03:00,32.811,25.073,36.853,10.99,49.95
2020-10-03 04:00,32.858,25.199,36.438,10.48,49.95
2020-10-03 05:00,32.876,25.173,36.665,10.71,49.53
2020-10-03 06:00,32.928,25.165,36.964,10.98,49.62
2020-10-03 07:00,32.816,25.039,37.051,11.20,49.65
2020-10-03 08:00,32.861,24.965,37.637,11.80,49.35
2020-10-03 09:00,32.814,25.065,36.906,11.05,50.06
2020-10-03 10:00,32.815,25.050,36.991,11.14,50.08
2020-10-03 11:00,32.809,25.053,36.945,11.10,50.09
2020-10-03 12:00,32.810,25.038,37.027,11.19,50.04
2020-10-03 13:00,32.814,25.070,36.883,11.02,50.18
2020-10-03 14:00,32.843,25.131,36.716,10.80,50.03
2020-10-03 15:00,32.822,25.083,36.856,10.98,50.16
2020-10-03 16:00,32.819,25.078,36.870,11.00,50.52
2020-10-03 17:00,32.800,25.068,36.827,10.97,50.02
2020-10-03 18:00,32.785,25.070,36.742,10.90,50.16
2020-10-03 19:00,32.801,25.074,36.802,10.95,50.08
2020-10-03 20:00,32.750,25.031,36.767,10.96,50.21
2020-10-03 21:00,32.785,25.041,36.890,11.06,50.17
2020-10-03 22:00,32.779,25.039,36.868,11.04,50.10
2020-10-03 23:00,32.784,25.051,36.836,11.00,50.04
2020-10-04 00:00,32.864,25.114,36.907,10.99,49.93
2020-10-04 01:00,32.821,25.063,36.959,11.10,50.24
2020-10-04 02:00,32.897,25.060,37.345,11.44,50.28
2020-10-04 03:00,32.843,25.094,36.909,11.02,50.14
2020-10-04 04:00,32.892,25.117,37.032,11.10,50.16
2020-10-04 05:00,32.831,25.101,36.814,10.92,49.95
2020-10-04 06:00,32.847,25.099,36.899,11.00,50.18
2020-10-04 07:00,32.826,25.085,36.866,10.99,49.88
2020-10-04 08:00,32.863,25.018,37.387,11.52,50.28
2020-10-04 09:00,32.783,24.998,37.091,11.29,50.01
2020-10-04 10:00,32.784,25.007,37.057,11.25,50.17
2020-10-04 11:00,32.803,25.032,37.024,11.19,50.28
2020-10-04 12:00,32.809,25.058,36.921,11.07,50.40
2020-10-04 13:00,32.833,25.123,36.709,10.81,50.03
2020-10-04 14:00,32.833,25.123,36.707,10.80,49.86
2020-10-04 15:00,32.805,25.075,36.814,10.95,49.94
2020-10-04 16:00,32.839,25.093,36.896,11.01,50.08
2020-10-04 17:00,32.902,25.157,36.876,10.92,50.32
2020-10-04 18:00,32.903,25.180,36.762,10.79,50.13
2020-10-04 19:00,32.951,25.198,36.917,10.90,50.08
2020-10-04 20:00,32.839,25.068,37.018,11.14,50.29
2020-10-04 21:00,32.841,25.074,37.001,11.12,50.19
2020-10-04 22:00,32.826,25.061,36.992,11.13,50.08
2020-10-04 23:00,32.816,25.054,36.973,11.12,50.08
2020-10-05 00:00,32.818,25.063,36.942,11.08,50.05
2020-10-05 01:00,32.828,25.079,36.907,11.03,49.96
2020-10-05 02:00,32.835,25.079,36.942,11.06,50.21
2020-10-05 03:00,32.847,25.112,36.834,10.93,50.11
2020-10-05 04:00,32.895,25.145,36.905,10.95,50.05
2020-10-05 05:00,32.953,25.131,37.269,11.29,49.60
2020-10-05 06:00,32.942,25.145,37.136,11.16,50.02
2020-10-05 07:00,32.978,25.187,37.106,11.08,49.94
2020-10-05 08:00,32.940,25.148,37.113,11.13,50.11
2020-10-05 09:00,32.967,25.087,37.549,11.59,49.93
2020-10-05 10:00,32.980,25.102,37.540,11.56,49.96
2020-10-05 11:00,32.940,25.179,36.958,10.96,49.98
2020-10-05 12:00,32.938,25.067,37.511,11.58,50.11
2020-10-05 13:00,32.990,25.114,37.532,11.54,50.22